Location: Saint-Palais-sur-Mer
(45.6429°N, 1.0859°W)
Time: 23:41:17
(UTC+01:00)

Vanguard 1 - Pass Details

Date: 13 February 2026
Orbit: 653 x 3818 km, 34.2° (Epoch: 12 March)

Event Time Altitude Azimuth Distance (km) Brightness Sun altitude
Rises 21:41:02 0° 272° (W) 6,695 15.3 -34.0°
Reaches altitude 10° 21:45:07 10° 268° (W) 6,005 14.8 -34.7°
Maximum altitude 22:04:32 52° 200° (SSW) 4,354 13.1 -37.8°
Enters shadow 22:12:07 42° 160° (SSE) 4,742 13.1 -39.1°
